Regional Weather Roundup
Issued by NWS

Home | Current Version | Previous Version | Text Only | Print | Product List | Glossary Off
Versions: 1 2 3 4 5 6 7 8 9 10 11 12 13 14 15 16 17 18 19 20 21 22 23 24 25 26 27 28 29 30 31 32 33 34 35 36 37 38 39 40 41 42 43 44 45 46 47 48 49

000
ASUS45 KCYS 300910
RWRWY

WYOMING REGIONAL WEATHER ROUNDUP
NATIONAL WEATHER SERVICE CHEYENNE WY
300 AM MDT TUE SEP 30 2014

NOTE:  "FAIR" INDICATES FEW OR NO CLOUDS BELOW 12,000 FEET
WITH NO SIGNIFICANT WEATHER AND/OR OBSTRUCTIONS TO VISIBILITY.

WYZ001-301000-
YELLOWSTONE NATIONAL PARK

CITY           SKY/WX    TMP DP  RH WIND       PRES   REMARKS
LK YELLOWSTONE   N/A     38  35  89 VRB3      30.00F
W YELLOWSTONE  NOT AVBL

$$
WYZ002>013-054>058-071-098>099-301000-
NORTHERN WYOMING

CITY           SKY/WX    TMP DP  RH WIND       PRES   REMARKS
JACKSON        CLOUDY    43  43 100 SW3       29.98F
CODY           CLEAR     54  36  50 W10G16    29.80F
GREYBULL       MOCLDY    47  45  93 CALM      29.76F
WORLAND        PTCLDY    47  44  90 CALM      29.77F
SHERIDAN       CLOUDY    51  49  92 W3        29.75F
BUFFALO        CLOUDY    50  48  93 NW12      29.76F
GILLETTE       LGT RAIN  52  50  93 CALM      29.73F
HULETT         RAIN      50  48  93 W3        29.74  VSB 1/2
NEWCASTLE      RAIN      48  46  93 N20G28    29.65

$$
WYZ014>020-022>026-101>103-301000-
CENTRAL WYOMING

CITY           SKY/WX    TMP DP  RH WIND       PRES   REMARKS
BIG PINEY      MOCLDY    38  36  92 E5        30.00S WCI  34
PINEDALE       PTSUNNY   37  36  93 W5        30.00F WCI  34
DUBOIS         FAIR      39  32  75 NW12G17   29.92F WCI  32
LANDER         PTCLDY    44  35  70 E3        29.83F
RIVERTON       PTCLDY    49  36  61 NW16G26   29.83F
CASPER         CLOUDY    50  37  61 W21G26    29.77F
DOUGLAS        LGT RAIN  50  48  93 CALM      29.72F

$$
WYZ021-027>030-104>119-301000-
SOUTHERN WYOMING

CITY           SKY/WX    TMP DP  RH WIND       PRES   REMARKS
EVANSTON       CLOUDY    41  38  89 SW13      30.04F
KEMMERER       CLOUDY    39  37  93 SW5       30.03F
FORT BRIDGER     N/A     44  39  85 W8        30.06S
ROCK SPRINGS   CLEAR     40  37  89 W15       30.00S WCI  32
DIXON          CLOUDY    45  40  83 SW10      30.03F
RAWLINS        CLOUDY    43  38  82 W21G31    29.93F
SARATOGA         N/A     43  37  81 W22G28    29.95S
LARAMIE        CLOUDY    45  36  70 W18G28    29.86F
CHEYENNE       CLOUDY    49  39  68 W20G26    29.78F
TORRINGTON     LGT RAIN  49  48  97 W9        29.68F
PINE BLUFFS    CLOUDY    46  45  93 CALM      29.77S

$$


USA.gov is the U.S. government's official web portal to all federal, state and local government web resources and services.